User: anonymous   Login
Location: Unspecified
(0.0000°N, 0.0000°E)
Time: 08:59:09
(UTC+00:00)
Language:

Saudisat 1A - Orbit

View from above orbital plane
View from above orbital plane
View from above satellite
View from above satellite

Ground track
Ground track

The orbit data is extracted from the following two-line orbital elements,

1 26546U 00057B   19019.19140723  .00000006  00000-0  16863-4 0  9996
2 26546  64.5554 316.3571 0034759 307.8223  51.9742 14.90824306993267
Epoch (UTC): 19 January 2019 04:35:37
Eccentricity: 0.0034759
inclination: 64.5554°
perigee height: 571 km
apogee height: 619 km
right ascension of ascending node: 316.3571°
argument of perigee: 307.8223°
revolutions per day: 14.90824306
mean anomaly at epoch: 51.9742°
orbit number at epoch: 99326

The dashed part of the orbit path shows where the satellite is in the earth's shadow,  

DLR